Voltar ao catálogo

THORAD AGENA D DEB

AtivoLEO
NORAD 5359·DEBRIS·🇺🇸 United States

Lançado Apr 8, 1970 de Vandenberg Space Force Base

Loading…

Próximas Passagens (próximas 24 horas)

TLE

AtualizadoSource: Space-Track

Época: Sep 14, 2026, 15:49 UTC

1 05359U 70025KQ  26257.65951362  .00000428  00000-0  50802-3 0  9997
2 05359 100.0273 224.8429 0003123 149.5537  27.4098 13.73990967805626

Acompanhe THORAD AGENA D DEB em tempo real com AllMySat

Download on the App Store